Location: Newark
(33.6333°S, 78.8500°W)
Time: 23:31:50
(UTC+00:00)

Courier 1B - Pass Details

Date: 27 September 2019
Orbit: 962 x 1209 km, 28.3° (Epoch: 22 October)

Event Time Altitude Azimuth Distance (km) Brightness Sun altitude
Rises 18:56:30 0° 314° (NW) 4,075 11.4 49.0°
Reaches altitude 10° 18:59:41 10° 324° (NW) 3,130 11.1 48.5°
Maximum altitude 19:06:22 31° 23° (NNE) 1,969 9.7 47.5°
Drops below altitude 10° 19:13:03 10° 81° (E) 3,129 10.0 46.5°
Sets 19:16:13 0° 91° (E) 4,074 10.4 46.0°
